Kezdőlap
METAR-TAF:

METAR-TAF

Repülőterek :

Glencoe Municipal Airport (Vernon Perschau Field)

Glencoe, Minnesota, Amerikai Egyesült Államok

földrajzi szélesség: 44-45-22N, földrajzi hosszúság: 094-04-52W, magasság: 302 m

Jelenlegi meteorológiai megfigyelések

A jelentés 32 perccel ezelõtt készült, 15:55 UTC
Kelet-délkeleti szél 3 kt
Hőmérséklet 24°C
Páratartalom 74%
Légköri nyomás 1016 hPa
Látótávolság: 16.1 km
Derült ég

METAR: KGYL 131555Z AUTO 11003KT 10SM CLR 24/19 A2999 RMK AO2 LTG DSNT NW T02380192

Idő: 11:27 (16:27 UTC)


TAF: hiányzik

Meteorológiai megfigyelések és előrejelzések több, mint 4000 repülőtéren (METAR és TAF jelentéseket).

A térképen piros és sárga pontok jelzik az elérhető meteorológiai állomásokat.

Mozgassa az egeret a pont fölött, hogy megjelenjen az állomás neve.

Azután kattintson az időjárási megfigyelések és előrejelzések megtekintéséhez.

A térkép megváltoztatása: kattintson a fekete keresztel jelölt zöld gombra ráközelítéshez, a vonallal jelölt zöld gombra távolításhoz, vagy a zöld nyilakra a szomszédos térképek eléréséhez.


METAR-TAF: